Regional Weather Roundup
Issued by NWS

Home | Current Version | Previous Version | Text Only | Print | Product List | Glossary Off
Versions: 1 2 3 4 5 6 7 8 9 10 11 12 13 14 15 16 17 18 19 20 21 22 23 24 25 26 27

000
ASUS45 KBOU 260707
RWRCO

WEATHER ROUNDUP FOR COLORADO
NATIONAL WEATHER SERVICE DENVER/BOULDER CO
1200 AM MST SUN FEB 26 2017

NOTE: "FAIR" INDICATES FEW OR NO CLOUDS BELOW 12000 FEET WITH NO
SIGNIFICANT WEATHER AND/OR OBSTRUCTIONS TO VISIBILITY.

COZ001>005-013-030-031-260800-
...NORTHWEST COLORADO...

CITY           SKY/WX    TMP DP  RH WIND       PRES   REMARKS
CRAIG          CLOUDY    17  11  77 CALM      29.90S
HAYDEN         CLOUDY    16   9  73 N3        29.88R
MEEKER         FAIR       8   4  83 CALM      29.90S
MOUNT WERNER   NOT AVBL
STEAMBOAT SPGS CLOUDY    14  11  87 W6        29.86S WCI   5
WALDEN         NOT AVBL
$$

COZ006>008-011-260800-
...WEST CENTRAL VALLEYS...

CITY           SKY/WX    TMP DP  RH WIND       PRES   REMARKS
GRAND JUNCTION CLOUDY    28  12  51 N5        29.92S WCI  23
MONTROSE       CLOUDY    27  14  58 SE7       29.93F WCI  19
EAGLE          FAIR      19   9  65 SW12      29.90R WCI   7
RIFLE          FAIR      23  12  62 W6        29.92S WCI  16
DELTA          FAIR      28  15  57 S3        29.92F
NUCLA          CLOUDY    30  14  51 NW7       29.94F WCI  23
$$

COZ017>023-064>068-260800-
...SOUTHWEST COLORADO...

CITY           SKY/WX    TMP DP  RH WIND       PRES   REMARKS
DURANGO        CLOUDY    27   8  44 SW7       29.85S WCI  19
CORTEZ         MOCLDY    26  18  71 E6        29.88F WCI  19
PAGOSA SPRINGS CLOUDY    25   8  49 CALM      29.84F
TELLURIDE      LGT SNOW  15  13  91 W5        29.85F WCI   8
WOLF CREEK PAS LGT SNOW   5   3  92 SW14G21   29.79S WCI -12
$$

COZ009-010-012-014-032>034-037-058>063-260800-
...CENTRAL COLORADO...

CITY           SKY/WX    TMP DP  RH WIND       PRES   REMARKS
ASPEN          CLOUDY    16  11  80 N6        29.83R WCI   7
BUENA VISTA    CLOUDY    20   6  54 NW3       29.78F
COPPER MTN     CLOUDY     5  -4  66 MISG      29.65S
BERTHOUD PASS  LGT SNOW  -6 -17  59 NW46G54   29.50F VSB 1   WCI -38
COTTONWOOD PAS CLOUDY    16   3  57 NW7G20    29.72F WCI   6
GUNNISON       FAIR      15  10  80 CALM      29.85F
KREMMLING      FAIR      16  12  86 W3        29.85S
LEADVILLE      LGT SNOW   7   1  76 NW9G24    29.73S WCI  -7
MONARCH PASS   LGT SNOW   1  -2  85 W33G40    29.75F VSB 3/4 WCI -25
SALIDA         FAIR      23   7  49 W14G22    29.87F WCI  11
SUNLIGHT       NOT AVBL
WILKERSON PASS FAIR       3   0  85 SW15G24   29.64F WCI -15
$$

COZ069>075-260800-
...SAN LUIS VALLEY/SANGRE DE CRISTO MOUNTAINS...

CITY           SKY/WX    TMP DP  RH WIND       PRES   REMARKS
ALAMOSA        MOCLDY    25  13  60 SW13      29.80S WCI  14
LA VETA PASS   CLOUDY    16   9  73 SW14G29   29.73F WCI   1
SAGUACHE       CLOUDY    21  10  63 NW15      29.82F WCI   8
$$

COZ035-036-038>040-260800-
...NORTHERN COLORADO FRONT RANGE...

CITY           SKY/WX    TMP DP  RH WIND       PRES   REMARKS
DENVER INTL AP FAIR      22   5  48 SW5       29.76F WCI  16
DMNS CITY PARK   N/A     26   2  34 NW3       29.78R
AURORA         PTCLDY    21   3  46 SW8       29.76F WCI  11
FRONT RANGE AP FAIR      23   9  54 SW6       29.77F WCI  16
ERIE MUNI ARPT FAIR      26   3  37 NW6       29.77S WCI  19
BOULDER MUN AP FAIR      28   9  43 W3        29.76S
CENTENNIAL     FAIR      17   6  62 S5        29.76F WCI  10
BROOMFIELD     FAIR      27   5  39 W7        29.77R WCI  19
FORT COLLINS   FAIR      21   8  57 E9        29.79R WCI  11
LONGMONT       FAIR      26  11  52 NW16      29.79R WCI  13
$$

COZ041-046-047-076>085-087-088-260800-
...PIKES PEAK/PALMER DIVIDE AND SOUTHERN FOOTHILLS...

CITY           SKY/WX    TMP DP  RH WIND       PRES   REMARKS
COLO. SPRINGS  FAIR      27  -1  30 SW16      29.76F WCI  15
A. F. ACADEMY  FAIR      20   0  42 N6        29.75S WCI  12
SCHRIEVER AFB  FAIR      21   0  41 W7        29.78S WCI  12
ELLICOTT       NOT AVBL
FALCON         FAIR      16   0  49 N3        29.76F
FORT CARSON    FAIR      27   1  32 SW15      29.75F WCI  15
LIMON          FAIR       6   3  87 NW3       29.80F
MONUMENT HILL  FAIR      18   1  49 SW10      29.75S WCI   6
TRINIDAD       FAIR      23  -2  33 CALM      29.81S
$$

COZ042>045-048>051-090-091-260800-
...NORTHEAST COLORADO...

CITY           SKY/WX    TMP DP  RH WIND       PRES   REMARKS
GREELEY ARPT   FAIR      18  10  71 E6        29.82S WCI  10
AKRON          FAIR      20  12  71 S6        29.81F WCI  12
BURLINGTON     FAIR      21   7  54 E5        29.84S WCI  15
WRAY           NOT AVBL
STERLING       NOT AVBL
HOLYOKE        FAIR      25  18  74 W9        29.85S WCI  15
FORT MORGAN    FAIR      19  13  77 NE5       29.83R WCI  12
$$

COZ086-089-092>099-260800-
...SOUTHEAST COLORADO...

CITY           SKY/WX    TMP DP  RH WIND       PRES   REMARKS
PUEBLO         FAIR      27   2  34 W10       29.80S WCI  17
LA JUNTA       FAIR      24   4  42 N3        29.83F
LAMAR          FAIR      21   6  52 CALM      29.81F
SPRINGFIELD      N/A     24   3  40 W8        29.80S WCI  15
$$




USA.gov is the U.S. government's official web portal to all federal, state and local government web resources and services.